SUPERVIEW NEO-3 01

导读

SUPERVIEW NEO-3 01是中国于2024年4月15日发射的卫星,隶属于“景云”新一代商业遥感卫星系统。该卫星延续了SuperView系列高分辨率成像优势,进一步提升观测幅宽与重访能力,能为国土测绘、农林监测、城市规划、灾害应急等领域提供更高质量的遥感数据支撑,助力中国商业遥感服务能力升级。

Basic Information
目录编号:
59510
目录名称:
SUPERVIEW NEO-3 01
国际标识:
2024-072A
轨道中心:
EARTH
卫星名称:
SUPERVIEW NEO-3 01
卫星全名:
--
卫星状态:
在轨 (已飞行872 天)
发射日期:
2024-04-15 UTC
国别 :
中国 (CN)
星等 :
--
Orbit Information
数据来源 国际轨道数据
星历时间: 2026-09-04T14:19:58+0800
9小时前
查看轨道信息
半长轴: 6878.338km
偏心率: 0.0002009
轨道倾角: 97.409°
近地点辐角 138.431°
升交点赤经 326.217°
平近点角 221.708°
近地点: 498.819km
远地点: 501.583km
周期: 94.620分钟
每日圈数: 15.218701
Detailed Information
使用方式:
暂无
2D Orbit Map
3D Orbit Map
Orbit Altitude Analysis Chart
Orbit Inclination Analysis Chart
Orbit Comprehensive Analysis Chart
View Comprehensive Chart
Conjunction Data List
Event ID Objects TCA Miss Dist (km) Collision Risk Probability Collision Risk Index (CRI) Action
CDM_260903-132505-951006-844625
2026-09-03T
13:25:32+0000
0.273 km
中距离
5.508846E-4 高风险 0.9
CDM_260905-014905-081605-951021
2026-09-05T
01:49:16+0000
2.595 km
极远距离
1.468247E-6 低风险 0.38
CDM_260905-084505-951006-675622
MAUVE (66756)
2026-09-05T
08:45:56+0000
1.916 km
极远距离
6.71593E-7 极低风险 0.32
CDM_260905-093305-951006-675622
MAUVE (66756)
2026-09-05T
09:33:17+0000
1.928 km
极远距离
6.634378E-7 极低风险 0.31